Time,TemperatureF,DewpointF,PressureIn,WindDirection,WindDirectionDegrees,WindSpeedMPH,WindSpeedGustMPH,Humidity,HourlyPrecipIn,Conditions,Clouds,dailyrainin,SoftwareType,DateUTC
2013-09-09 00:13:00,57.9,42.0,30.10,NNW,346,1.0,7.0,55,0.00,,,0.00,weatherlink.com 1.10,2013-09-09 04:13:00,
2013-09-09 00:28:00,57.3,42.0,30.11,NNW,331,0.0,8.0,56,0.00,,,0.00,weatherlink.com 1.10,2013-09-09 04:28:00,
2013-09-09 00:43:00,57.0,42.0,30.11,NE,46,8.0,12.0,57,0.00,,,0.00,weatherlink.com 1.10,2013-09-09 04:43:00,
2013-09-09 00:58:00,56.9,42.0,30.11,ENE,61,2.0,13.0,58,0.00,,,0.00,weatherlink.com 1.10,2013-09-09 04:58:00,
2013-09-09 01:13:00,56.6,41.0,30.11,NNE,18,3.0,11.0,57,0.00,,,0.00,weatherlink.com 1.10,2013-09-09 05:13:00,
2013-09-09 01:28:00,56.4,42.0,30.11,NNE,20,3.0,10.0,58,0.00,,,0.00,weatherlink.com 1.10,2013-09-09 05:28:00,
2013-09-09 01:43:00,56.1,42.0,30.11,NNE,26,3.0,10.0,59,0.00,,,0.00,weatherlink.com 1.10,2013-09-09 05:43:00,
2013-09-09 01:58:00,56.0,42.0,30.12,NNE,24,3.0,6.0,59,0.00,,,0.00,weatherlink.com 1.10,2013-09-09 05:58:00,
2013-09-09 02:13:00,55.8,42.0,30.12,North,349,4.0,8.0,60,0.00,,,0.00,weatherlink.com 1.10,2013-09-09 06:13:00,
2013-09-09 02:28:00,55.3,42.0,30.13,NNW,336,4.0,11.0,61,0.00,,,0.00,weatherlink.com 1.10,2013-09-09 06:28:00,
2013-09-09 02:43:00,54.9,42.0,30.13,NNW,335,9.0,11.0,62,0.00,,,0.00,weatherlink.com 1.10,2013-09-09 06:43:00,
2013-09-09 02:58:00,54.7,42.0,30.13,NNE,29,4.0,8.0,63,0.00,,,0.00,weatherlink.com 1.10,2013-09-09 06:58:00,
2013-09-09 03:13:00,54.5,42.0,30.14,North,11,4.0,11.0,63,0.00,,,0.00,weatherlink.com 1.10,2013-09-09 07:13:00,
2013-09-09 03:28:00,54.5,42.0,30.14,North,5,2.0,8.0,63,0.00,,,0.00,weatherlink.com 1.10,2013-09-09 07:28:00,
2013-09-09 03:43:00,54.2,42.0,30.14,NNE,32,5.0,9.0,63,0.00,,,0.00,weatherlink.com 1.10,2013-09-09 07:43:00,
2013-09-09 03:58:00,54.2,42.0,30.14,North,360,6.0,7.0,64,0.00,,,0.00,weatherlink.com 1.10,2013-09-09 07:58:00,
2013-09-09 04:13:00,54.1,42.0,30.15,North,5,0.0,7.0,64,0.00,,,0.00,weatherlink.com 1.10,2013-09-09 08:13:00,
2013-09-09 04:28:00,54.1,42.0,30.16,NNE,26,3.0,8.0,64,0.00,,,0.00,weatherlink.com 1.10,2013-09-09 08:28:00,
2013-09-09 04:43:00,53.8,42.0,30.16,NE,34,4.0,10.0,65,0.00,,,0.00,weatherlink.com 1.10,2013-09-09 08:43:00,
2013-09-09 04:58:00,53.4,42.0,30.17,NNE,21,7.0,8.0,65,0.00,,,0.00,weatherlink.com 1.10,2013-09-09 08:58:00,
2013-09-09 05:13:00,53.5,42.0,30.18,NNE,16,7.0,8.0,65,0.00,,,0.00,weatherlink.com 1.10,2013-09-09 09:13:00,
2013-09-09 05:28:00,53.3,42.0,30.18,North,350,4.0,8.0,65,0.00,,,0.00,weatherlink.com 1.10,2013-09-09 09:28:00,
2013-09-09 05:43:00,53.1,42.0,30.19,NNW,348,0.0,6.0,67,0.00,,,0.00,weatherlink.com 1.10,2013-09-09 09:43:00,
2013-09-09 05:58:00,52.8,42.0,30.20,North,355,1.0,7.0,67,0.00,,,0.00,weatherlink.com 1.10,2013-09-09 09:58:00,
2013-09-09 06:13:00,52.9,41.0,30.20,NNW,347,4.0,7.0,65,0.00,,,0.00,weatherlink.com 1.10,2013-09-09 10:13:00,
2013-09-09 06:29:00,52.6,42.0,30.21,NNW,337,4.0,5.0,67,0.00,,,0.00,weatherlink.com 1.10,2013-09-09 10:29:00,
2013-09-09 06:44:00,52.4,42.0,30.22,NNW,331,2.0,5.0,68,0.00,,,0.00,weatherlink.com 1.10,2013-09-09 10:44:00,
2013-09-09 06:59:00,52.3,42.0,30.22,NW,312,6.0,7.0,67,0.00,,,0.00,weatherlink.com 1.10,2013-09-09 10:59:00,
2013-09-09 07:14:00,52.3,42.0,30.22,NW,313,0.0,5.0,68,0.00,,,0.00,weatherlink.com 1.10,2013-09-09 11:14:00,
2013-09-09 07:29:00,53.5,42.0,30.23,NNW,336,5.0,9.0,66,0.00,,,0.00,weatherlink.com 1.10,2013-09-09 11:29:00,
2013-09-09 07:44:00,54.1,42.0,30.23,NW,320,4.0,8.0,64,0.00,,,0.00,weatherlink.com 1.10,2013-09-09 11:44:00,
2013-09-09 07:59:00,54.1,42.0,30.23,NW,319,6.0,9.0,65,0.00,,,0.00,weatherlink.com 1.10,2013-09-09 11:59:00,
2013-09-09 08:14:00,54.5,42.0,30.24,NNW,336,6.0,8.0,64,0.00,,,0.00,weatherlink.com 1.10,2013-09-09 12:14:00,
2013-09-09 08:29:00,54.8,42.0,30.24,NNW,328,2.0,8.0,63,0.00,,,0.00,weatherlink.com 1.10,2013-09-09 12:29:00,
2013-09-09 08:44:00,55.9,42.0,30.23,NNW,327,2.0,4.0,61,0.00,,,0.00,weatherlink.com 1.10,2013-09-09 12:44:00,
2013-09-09 08:59:00,57.1,43.0,30.24,NNW,327,0.0,6.0,59,0.00,,,0.00,weatherlink.com 1.10,2013-09-09 12:59:00,
2013-09-09 09:14:00,58.4,42.0,30.24,NNW,327,2.0,5.0,55,0.00,,,0.00,weatherlink.com 1.10,2013-09-09 13:14:00,
2013-09-09 09:29:00,58.9,42.0,30.25,NW,311,2.0,8.0,53,0.00,,,0.00,weatherlink.com 1.10,2013-09-09 13:29:00,
2013-09-09 09:44:00,59.6,41.0,30.24,NW,306,0.0,9.0,50,0.00,,,0.00,weatherlink.com 1.10,2013-09-09 13:44:00,
2013-09-09 09:59:00,60.7,38.0,30.24,WNW,285,1.0,8.0,44,0.00,,,0.00,weatherlink.com 1.10,2013-09-09 13:59:00,
2013-09-09 10:14:00,61.1,39.0,30.25,West,281,6.0,11.0,44,0.00,,,0.00,weatherlink.com 1.10,2013-09-09 14:14:00,
2013-09-09 10:29:00,61.8,39.0,30.24,WNW,301,1.0,9.0,44,0.00,,,0.00,weatherlink.com 1.10,2013-09-09 14:29:00,
2013-09-09 10:44:00,62.2,39.0,30.23,WNW,284,4.0,10.0,43,0.00,,,0.00,weatherlink.com 1.10,2013-09-09 14:44:00,
2013-09-09 10:59:00,63.6,41.0,30.23,NW,310,9.0,10.0,43,0.00,,,0.00,weatherlink.com 1.10,2013-09-09 14:59:00,
2013-09-09 11:14:00,63.4,39.0,30.22,NW,321,6.0,10.0,41,0.00,,,0.00,weatherlink.com 1.10,2013-09-09 15:14:00,
2013-09-09 11:29:00,63.6,40.0,30.22,WNW,284,3.0,11.0,42,0.00,,,0.00,weatherlink.com 1.10,2013-09-09 15:29:00,
2013-09-09 11:44:00,64.4,40.0,30.22,WNW,298,5.0,14.0,41,0.00,,,0.00,weatherlink.com 1.10,2013-09-09 15:44:00,
2013-09-09 11:59:00,65.1,40.0,30.22,NW,311,2.0,11.0,40,0.00,,,0.00,weatherlink.com 1.10,2013-09-09 15:59:00,
2013-09-09 12:14:00,65.5,40.0,30.21,WSW,258,6.0,10.0,39,0.00,,,0.00,weatherlink.com 1.10,2013-09-09 16:14:00,
2013-09-09 12:29:00,65.5,40.0,30.21,WNW,284,6.0,13.0,39,0.00,,,0.00,weatherlink.com 1.10,2013-09-09 16:29:00,
2013-09-09 12:44:00,66.2,41.0,30.20,West,275,7.0,15.0,40,0.00,,,0.00,weatherlink.com 1.10,2013-09-09 16:44:00,
2013-09-09 12:59:00,67.5,42.0,30.20,West,261,6.0,10.0,39,0.00,,,0.00,weatherlink.com 1.10,2013-09-09 16:59:00,
2013-09-09 13:14:00,68.7,42.0,30.20,WNW,294,5.0,8.0,38,0.00,,,0.00,weatherlink.com 1.10,2013-09-09 17:14:00,
2013-09-09 13:29:00,67.9,41.0,30.20,NW,306,2.0,15.0,38,0.00,,,0.00,weatherlink.com 1.10,2013-09-09 17:29:00,
2013-09-09 13:44:00,68.3,42.0,30.19,NW,321,8.0,15.0,38,0.00,,,0.00,weatherlink.com 1.10,2013-09-09 17:44:00,
2013-09-09 13:59:00,68.1,42.0,30.18,NW,309,1.0,15.0,39,0.00,,,0.00,weatherlink.com 1.10,2013-09-09 17:59:00,
2013-09-09 14:14:00,67.6,42.0,30.18,NNW,338,9.0,14.0,40,0.00,,,0.00,weatherlink.com 1.10,2013-09-09 18:14:00,
2013-09-09 14:29:00,67.8,43.0,30.18,West,270,6.0,13.0,40,0.00,,,0.00,weatherlink.com 1.10,2013-09-09 18:29:00,
2013-09-09 14:44:00,69.2,44.0,30.18,West,265,5.0,15.0,40,0.00,,,0.00,weatherlink.com 1.10,2013-09-09 18:44:00,
2013-09-09 14:59:00,69.8,43.0,30.17,West,273,6.0,12.0,38,0.00,,,0.00,weatherlink.com 1.10,2013-09-09 18:59:00,
2013-09-09 15:14:00,68.4,44.0,30.18,WNW,297,6.0,20.0,42,0.00,,,0.00,weatherlink.com 1.10,2013-09-09 19:14:00,
2013-09-09 15:29:00,68.7,44.0,30.18,WNW,290,10.0,14.0,41,0.00,,,0.00,weatherlink.com 1.10,2013-09-09 19:29:00,
2013-09-09 15:45:00,68.4,46.0,30.18,NW,321,7.0,11.0,44,0.00,,,0.00,weatherlink.com 1.10,2013-09-09 19:45:00,
2013-09-09 16:00:00,67.9,45.0,30.18,WNW,303,10.0,14.0,44,0.00,,,0.00,weatherlink.com 1.10,2013-09-09 20:00:00,
2013-09-09 16:15:00,68.3,46.0,30.18,West,263,8.0,14.0,45,0.00,,,0.00,weatherlink.com 1.10,2013-09-09 20:15:00,
2013-09-09 16:30:00,68.4,47.0,30.18,West,261,6.0,14.0,46,0.00,,,0.00,weatherlink.com 1.10,2013-09-09 20:30:00,
2013-09-09 16:45:00,68.4,47.0,30.17,WSW,256,5.0,15.0,46,0.00,,,0.00,weatherlink.com 1.10,2013-09-09 20:45:00,
2013-09-09 17:00:00,68.4,46.0,30.17,West,262,5.0,15.0,45,0.00,,,0.00,weatherlink.com 1.10,2013-09-09 21:00:00,
2013-09-09 17:15:00,68.0,47.0,30.17,WNW,286,9.0,14.0,47,0.00,,,0.00,weatherlink.com 1.10,2013-09-09 21:15:00,
2013-09-09 17:30:00,67.6,46.0,30.17,WSW,251,6.0,16.0,46,0.00,,,0.00,weatherlink.com 1.10,2013-09-09 21:30:00,
2013-09-09 17:45:00,67.2,45.0,30.17,WSW,256,10.0,16.0,45,0.00,,,0.00,weatherlink.com 1.10,2013-09-09 21:45:00,
2013-09-09 18:00:00,67.6,45.0,30.16,WNW,296,12.0,14.0,44,0.00,,,0.00,weatherlink.com 1.10,2013-09-09 22:00:00,
2013-09-09 18:15:00,66.6,44.0,30.16,West,275,5.0,20.0,45,0.00,,,0.00,weatherlink.com 1.10,2013-09-09 22:15:00,
2013-09-09 18:30:00,66.3,46.0,30.17,West,272,6.0,10.0,49,0.00,,,0.00,weatherlink.com 1.10,2013-09-09 22:30:00,
2013-09-09 18:45:00,65.2,50.0,30.17,WSW,254,4.0,11.0,59,0.00,,,0.00,weatherlink.com 1.10,2013-09-09 22:45:00,
2013-09-09 19:00:00,64.2,49.0,30.16,West,277,6.0,10.0,59,0.00,,,0.00,weatherlink.com 1.10,2013-09-09 23:00:00,
2013-09-09 19:15:00,63.7,49.0,30.16,WSW,238,0.0,10.0,59,0.00,,,0.00,weatherlink.com 1.10,2013-09-09 23:15:00,
2013-09-09 19:30:00,63.1,49.0,30.16,WSW,247,2.0,7.0,60,0.00,,,0.00,weatherlink.com 1.10,2013-09-09 23:30:00,
2013-09-09 19:45:00,62.5,49.0,30.16,West,269,6.0,8.0,62,0.00,,,0.00,weatherlink.com 1.10,2013-09-09 23:45:00,
2013-09-09 20:00:00,62.3,50.0,30.16,West,281,4.0,6.0,64,0.00,,,0.00,weatherlink.com 1.10,2013-09-10 00:00:00,
2013-09-09 20:15:00,62.0,50.0,30.16,West,270,1.0,8.0,65,0.00,,,0.00,weatherlink.com 1.10,2013-09-10 00:15:00,
2013-09-09 20:30:00,61.5,50.0,30.17,West,275,5.0,12.0,67,0.00,,,0.00,weatherlink.com 1.10,2013-09-10 00:30:00,
2013-09-09 20:45:00,61.1,50.0,30.17,West,263,11.0,13.0,68,0.00,,,0.00,weatherlink.com 1.10,2013-09-10 00:45:00,
2013-09-09 21:00:00,60.9,50.0,30.18,WNW,284,3.0,10.0,68,0.00,,,0.00,weatherlink.com 1.10,2013-09-10 01:00:00,
2013-09-09 21:15:00,60.6,50.0,30.17,NNW,328,2.0,6.0,69,0.00,,,0.00,weatherlink.com 1.10,2013-09-10 01:15:00,
2013-09-09 21:30:00,60.4,51.0,30.17,WNW,291,6.0,11.0,70,0.00,,,0.00,weatherlink.com 1.10,2013-09-10 01:30:00,
2013-09-09 21:45:00,60.2,51.0,30.17,West,273,6.0,10.0,71,0.00,,,0.00,weatherlink.com 1.10,2013-09-10 01:45:00,
2013-09-09 22:00:00,60.2,51.0,30.17,West,263,5.0,10.0,71,0.00,,,0.00,weatherlink.com 1.10,2013-09-10 02:00:00,
2013-09-09 22:15:00,60.0,51.0,30.17,WSW,257,7.0,11.0,71,0.00,,,0.00,weatherlink.com 1.10,2013-09-10 02:15:00,
2013-09-09 22:30:00,59.8,51.0,30.17,West,279,3.0,10.0,72,0.00,,,0.00,weatherlink.com 1.10,2013-09-10 02:30:00,
2013-09-09 22:45:00,59.8,51.0,30.18,West,281,5.0,11.0,72,0.00,,,0.00,weatherlink.com 1.10,2013-09-10 02:45:00,
2013-09-09 23:00:00,59.9,51.0,30.18,West,265,6.0,11.0,72,0.00,,,0.00,weatherlink.com 1.10,2013-09-10 03:00:00,
2013-09-09 23:15:00,59.9,51.0,30.16,West,267,2.0,8.0,73,0.00,,,0.00,weatherlink.com 1.10,2013-09-10 03:15:00,
2013-09-09 23:30:00,59.7,51.0,30.16,WNW,286,1.0,7.0,74,0.00,,,0.00,weatherlink.com 1.10,2013-09-10 03:30:00,
2013-09-09 23:45:00,59.5,51.0,30.17,West,259,6.0,8.0,74,0.00,,,0.00,weatherlink.com 1.10,2013-09-10 03:45:00,